Tracking 32139 objects as of 17-Nov-2025
HD Live streaming from Space Station
objects crossing your sky now

GEESAT 4-08

Track GEESAT 4-08 now!
10-day predictions
GEESAT 4-08 is classified as:


NORAD ID: 65126
Int'l Code: 2025-170H
Perigee: 581.0 km
Apogee: 589.7 km
Inclination: 50.0 °
Period: 96.2 minutes
Semi major axis: 6956 km
RCS: Unknown
Launch date: August 8, 2025
Source: People's Republic of China (PRC)
Launch site: Yellow Sea Launch Area, China (YSLA)
Your satellite tracking list
Your tracking list is empty




NASA's NSSDC Master Catalog

Two Line Element Set (TLE):
1 65126U 25170H   25319.59095522  .00006567  00000-0  59521-3 0  9991
2 65126  49.9717  83.7213 0006240  97.7800 262.3852 14.96338225 14721
Source of the keplerian elements: AFSPC